Time,TemperatureF,DewpointF,PressureIn,WindDirection,WindDirectionDegrees,WindSpeedMPH,WindSpeedGustMPH,Humidity,HourlyPrecipIn,Conditions,Clouds,dailyrainin,SoftwareType,DateUTC
2013-02-03 00:00:00,21.8,14.5,-100.00,WNW,288,0.4,6.7,73,0.00,,,-99.99,HOBO +U30 +Weather +,2013-02-03 05:00:00,
2013-02-03 00:15:00,21.5,15.1,-100.00,WNW,292,0.0,0.9,75,0.00,,,-99.99,HOBO +U30 +Weather +,2013-02-03 05:15:00,
2013-02-03 00:30:00,21.1,15.5,-100.00,WNW,293,0.0,3.8,78,0.00,,,-99.99,HOBO +U30 +Weather +,2013-02-03 05:30:00,
2013-02-03 00:45:00,21.0,15.8,-100.00,NW,309,0.0,0.0,80,0.00,,,-99.99,HOBO +U30 +Weather +,2013-02-03 05:45:00,
2013-02-03 01:00:00,20.8,15.8,-100.00,WNW,296,0.4,4.5,80,0.00,,,-99.99,HOBO +U30 +Weather +,2013-02-03 06:00:00,
2013-02-03 01:15:00,20.5,15.8,-100.00,West,264,0.0,0.0,81,0.00,,,-99.99,HOBO +U30 +Weather +,2013-02-03 06:15:00,
2013-02-03 01:30:00,20.6,16.2,-100.00,West,281,0.0,0.0,83,0.00,,,-99.99,HOBO +U30 +Weather +,2013-02-03 06:30:00,
2013-02-03 01:45:00,20.4,16.4,-100.00,WNW,285,0.0,0.0,84,0.00,,,-99.99,HOBO +U30 +Weather +,2013-02-03 06:45:00,
2013-02-03 02:00:00,20.3,16.5,-100.00,WNW,289,0.0,0.0,84,0.00,,,-99.99,HOBO +U30 +Weather +,2013-02-03 07:00:00,
2013-02-03 02:15:00,20.1,16.3,-100.00,WNW,288,0.0,0.0,84,0.00,,,-99.99,HOBO +U30 +Weather +,2013-02-03 07:15:00,
2013-02-03 02:30:00,20.3,16.6,-100.00,NW,324,0.0,0.0,85,0.00,,,-99.99,HOBO +U30 +Weather +,2013-02-03 07:30:00,
2013-02-03 02:45:00,20.2,16.6,-100.00,NNW,327,0.0,0.0,85,0.00,,,-99.99,HOBO +U30 +Weather +,2013-02-03 07:45:00,
2013-02-03 03:00:00,20.2,16.7,-100.00,NW,321,0.0,0.0,86,0.00,,,-99.99,HOBO +U30 +Weather +,2013-02-03 08:00:00,
2013-02-03 03:15:00,20.2,16.9,-100.00,NNW,347,0.0,0.0,87,0.00,,,-99.99,HOBO +U30 +Weather +,2013-02-03 08:15:00,
2013-02-03 03:30:00,19.9,17.0,-100.00,NNW,345,0.0,0.0,88,0.00,,,-99.99,HOBO +U30 +Weather +,2013-02-03 08:30:00,
2013-02-03 03:45:00,19.9,17.1,-100.00,NNW,344,0.0,0.0,88,0.00,,,-99.99,HOBO +U30 +Weather +,2013-02-03 08:45:00,
2013-02-03 04:30:00,19.3,16.8,-100.00,NW,324,0.0,0.0,89,0.00,,,-99.99,HOBO +U30 +Weather +,2013-02-03 09:30:00,
2013-02-03 04:45:00,19.2,16.5,-100.00,NW,326,0.0,0.0,89,0.00,,,-99.99,HOBO +U30 +Weather +,2013-02-03 09:45:00,
2013-02-03 05:00:00,18.8,16.3,-100.00,North,355,0.0,0.0,90,0.00,,,-99.99,HOBO +U30 +Weather +,2013-02-03 10:00:00,
2013-02-03 05:15:00,18.4,15.9,-100.00,North,3,0.0,0.0,89,0.00,,,-99.99,HOBO +U30 +Weather +,2013-02-03 10:15:00,
2013-02-03 05:30:00,17.8,15.6,-100.00,NNE,13,0.0,0.0,91,0.00,,,-99.99,HOBO +U30 +Weather +,2013-02-03 10:30:00,
2013-02-03 05:45:00,17.1,15.1,-100.00,NNE,13,0.0,0.0,91,0.00,,,-99.99,HOBO +U30 +Weather +,2013-02-03 10:45:00,
2013-02-03 06:00:00,16.2,14.3,-100.00,NNE,13,0.0,0.0,92,0.00,,,-99.99,HOBO +U30 +Weather +,2013-02-03 11:00:00,
2013-02-03 06:15:00,16.1,14.5,-100.00,NNE,13,0.0,0.0,93,0.00,,,-99.99,HOBO +U30 +Weather +,2013-02-03 11:15:00,
2013-02-03 06:30:00,15.6,14.0,-100.00,NNE,13,0.0,0.0,93,0.00,,,-99.99,HOBO +U30 +Weather +,2013-02-03 11:30:00,
2013-02-03 06:45:00,15.6,14.0,-100.00,NNE,13,0.0,0.0,93,0.00,,,-99.99,HOBO +U30 +Weather +,2013-02-03 11:45:00,
2013-02-03 07:00:00,16.1,14.5,-100.00,NNE,13,0.0,0.0,93,0.00,,,-99.99,HOBO +U30 +Weather +,2013-02-03 12:00:00,
2013-02-03 07:15:00,16.5,14.8,-100.00,NNE,13,0.0,0.0,93,0.00,,,-99.99,HOBO +U30 +Weather +,2013-02-03 12:15:00,
2013-02-03 07:30:00,16.9,15.2,-100.00,NNE,13,0.0,0.0,92,0.00,,,-99.99,HOBO +U30 +Weather +,2013-02-03 12:30:00,
2013-02-03 07:45:00,18.0,16.2,-100.00,NNE,13,0.0,0.0,92,0.00,,,-99.99,HOBO +U30 +Weather +,2013-02-03 12:45:00,
2013-02-03 08:00:00,18.9,17.1,-100.00,North,11,0.0,0.0,92,0.00,,,-99.99,HOBO +U30 +Weather +,2013-02-03 13:00:00,
2013-02-03 08:15:00,19.2,17.4,-100.00,North,11,0.0,0.0,92,0.00,,,-99.99,HOBO +U30 +Weather +,2013-02-03 13:15:00,
2013-02-03 08:30:00,20.0,18.0,-100.00,North,10,0.0,0.0,91,0.00,,,-99.99,HOBO +U30 +Weather +,2013-02-03 13:30:00,
2013-02-03 08:45:00,21.2,18.9,-100.00,NNE,14,0.0,0.4,90,0.00,,,-99.99,HOBO +U30 +Weather +,2013-02-03 13:45:00,
2013-02-03 09:00:00,21.4,18.6,-100.00,ENE,66,0.0,0.0,88,0.00,,,-99.99,HOBO +U30 +Weather +,2013-02-03 14:00:00,
2013-02-03 09:15:00,22.5,19.0,-100.00,NE,45,0.0,0.0,86,0.00,,,-99.99,HOBO +U30 +Weather +,2013-02-03 14:15:00,
2013-02-03 09:30:00,22.6,18.9,-100.00,ENE,77,0.0,3.4,85,0.00,,,-99.99,HOBO +U30 +Weather +,2013-02-03 14:30:00,
2013-02-03 09:45:00,23.2,19.2,-100.00,NE,49,0.0,2.0,84,0.00,,,-99.99,HOBO +U30 +Weather +,2013-02-03 14:45:00,
2013-02-03 10:00:00,23.5,19.5,-100.00,North,3,0.0,4.5,84,0.00,,,-99.99,HOBO +U30 +Weather +,2013-02-03 15:00:00,
2013-02-03 10:15:00,23.6,19.3,-100.00,NNE,31,0.0,0.0,83,0.00,,,-99.99,HOBO +U30 +Weather +,2013-02-03 15:15:00,
2013-02-03 10:30:00,23.6,18.9,-100.00,NE,53,0.0,0.0,82,0.00,,,-99.99,HOBO +U30 +Weather +,2013-02-03 15:30:00,
2013-02-03 10:45:00,23.8,19.2,-100.00,NE,46,0.0,0.0,82,0.00,,,-99.99,HOBO +U30 +Weather +,2013-02-03 15:45:00,
2013-02-03 11:00:00,23.8,18.8,-100.00,NNE,31,0.0,0.0,81,0.00,,,-99.99,HOBO +U30 +Weather +,2013-02-03 16:00:00,
2013-02-03 11:15:00,23.7,18.8,-100.00,North,10,0.0,0.0,81,0.00,,,-99.99,HOBO +U30 +Weather +,2013-02-03 16:15:00,
2013-02-03 11:30:00,25.2,20.5,-100.00,North,3,0.0,0.0,82,0.00,,,-99.99,HOBO +U30 +Weather +,2013-02-03 16:30:00,
2013-02-03 11:45:00,24.2,19.7,-100.00,North,1,0.4,4.5,82,0.00,,,-99.99,HOBO +U30 +Weather +,2013-02-03 16:45:00,
2013-02-03 12:00:00,24.6,19.8,-100.00,North,10,0.0,0.4,81,0.00,,,-99.99,HOBO +U30 +Weather +,2013-02-03 17:00:00,
2013-02-03 12:15:00,25.0,20.0,-100.00,North,350,0.0,0.0,81,0.00,,,-99.99,HOBO +U30 +Weather +,2013-02-03 17:15:00,
2013-02-03 12:30:00,25.5,20.0,-100.00,NNE,21,0.0,0.4,79,0.00,,,-99.99,HOBO +U30 +Weather +,2013-02-03 17:30:00,
2013-02-03 12:45:00,25.1,20.0,-100.00,North,355,0.0,0.0,80,0.00,,,-99.99,HOBO +U30 +Weather +,2013-02-03 17:45:00,
2013-02-03 13:00:00,25.9,20.6,-100.00,NNE,21,0.0,2.9,80,0.00,,,-99.99,HOBO +U30 +Weather +,2013-02-03 18:00:00,
2013-02-03 13:15:00,25.8,20.2,-100.00,North,354,0.9,4.3,79,0.00,,,-99.99,HOBO +U30 +Weather +,2013-02-03 18:15:00,
2013-02-03 13:30:00,25.5,20.1,-100.00,NE,53,1.6,4.9,79,0.00,,,-99.99,HOBO +U30 +Weather +,2013-02-03 18:30:00,
2013-02-03 13:45:00,25.6,19.9,-100.00,North,0,0.9,7.2,78,0.00,,,-99.99,HOBO +U30 +Weather +,2013-02-03 18:45:00,
2013-02-03 14:00:00,26.1,20.1,-100.00,NW,326,1.3,4.5,77,0.00,,,-99.99,HOBO +U30 +Weather +,2013-02-03 19:00:00,
2013-02-03 14:15:00,25.5,19.9,-100.00,NNE,20,1.3,4.3,79,0.00,,,-99.99,HOBO +U30 +Weather +,2013-02-03 19:15:00,
2013-02-03 14:30:00,25.9,20.6,-100.00,NNE,32,0.4,6.3,80,0.00,,,-99.99,HOBO +U30 +Weather +,2013-02-03 19:30:00,
2013-02-03 14:45:00,26.5,21.4,-100.00,NNW,338,0.9,4.9,80,0.00,,,-99.99,HOBO +U30 +Weather +,2013-02-03 19:45:00,
2013-02-03 15:00:00,25.0,20.0,-100.00,NNW,345,0.0,0.4,81,0.00,,,-99.99,HOBO +U30 +Weather +,2013-02-03 20:00:00,
2013-02-03 15:15:00,25.2,20.4,-100.00,North,355,0.0,2.0,81,0.00,,,-99.99,HOBO +U30 +Weather +,2013-02-03 20:15:00,
2013-02-03 15:30:00,25.4,20.7,-100.00,NNE,20,0.0,2.5,82,0.00,,,-99.99,HOBO +U30 +Weather +,2013-02-03 20:30:00,
2013-02-03 15:45:00,25.2,20.2,-100.00,North,355,0.4,2.9,81,0.00,,,-99.99,HOBO +U30 +Weather +,2013-02-03 20:45:00,
2013-02-03 16:00:00,24.9,20.2,-100.00,NNW,347,0.0,2.5,82,0.00,,,-99.99,HOBO +U30 +Weather +,2013-02-03 21:00:00,
2013-02-03 16:15:00,24.7,20.0,-100.00,North,4,0.4,2.9,82,0.00,,,-99.99,HOBO +U30 +Weather +,2013-02-03 21:15:00,
2013-02-03 16:30:00,24.5,20.1,-100.00,North,11,0.4,4.3,82,0.00,,,-99.99,HOBO +U30 +Weather +,2013-02-03 21:30:00,
2013-02-03 16:45:00,24.3,20.0,-100.00,North,355,0.4,4.3,83,0.00,,,-99.99,HOBO +U30 +Weather +,2013-02-03 21:45:00,
2013-02-03 17:00:00,24.1,20.1,-100.00,ENE,62,0.9,4.5,84,0.00,,,-99.99,HOBO +U30 +Weather +,2013-02-03 22:00:00,
2013-02-03 18:00:00,23.3,20.5,-100.00,NE,53,0.4,4.3,89,0.00,,,-99.99,HOBO +U30 +Weather +,2013-02-03 23:00:00,
2013-02-03 18:15:00,23.0,20.4,-100.00,ENE,65,0.0,0.0,89,0.00,,,-99.99,HOBO +U30 +Weather +,2013-02-03 23:15:00,
2013-02-03 18:30:00,22.9,20.4,-100.00,ENE,65,0.0,0.0,90,0.00,,,-99.99,HOBO +U30 +Weather +,2013-02-03 23:30:00,
2013-02-03 18:45:00,22.6,20.1,-100.00,ENE,60,0.0,0.0,90,0.00,,,-99.99,HOBO +U30 +Weather +,2013-02-03 23:45:00,
2013-02-03 19:00:00,22.5,20.1,-100.00,ENE,65,0.0,0.0,90,0.00,,,-99.99,HOBO +U30 +Weather +,2013-02-04 00:00:00,
2013-02-03 19:15:00,22.4,20.0,-100.00,ENE,65,0.0,0.0,90,0.00,,,-99.99,HOBO +U30 +Weather +,2013-02-04 00:15:00,
2013-02-03 19:30:00,22.3,20.1,-100.00,ENE,65,0.0,0.0,91,0.00,,,-99.99,HOBO +U30 +Weather +,2013-02-04 00:30:00,
2013-02-03 19:45:00,22.2,20.0,-100.00,ENE,65,0.0,0.0,91,0.00,,,-99.99,HOBO +U30 +Weather +,2013-02-04 00:45:00,
2013-02-03 20:00:00,22.1,20.1,-100.00,ENE,65,0.0,0.0,91,0.00,,,-99.99,HOBO +U30 +Weather +,2013-02-04 01:00:00,
2013-02-03 20:15:00,22.1,20.1,-100.00,ENE,65,0.0,0.0,92,0.00,,,-99.99,HOBO +U30 +Weather +,2013-02-04 01:15:00,
2013-02-03 20:30:00,22.0,20.1,-100.00,ENE,65,0.0,0.0,92,0.00,,,-99.99,HOBO +U30 +Weather +,2013-02-04 01:30:00,
2013-02-03 20:45:00,22.0,20.2,-100.00,ENE,65,0.0,0.0,92,0.00,,,-99.99,HOBO +U30 +Weather +,2013-02-04 01:45:00,
2013-02-03 21:00:00,22.0,20.1,-100.00,ENE,65,0.0,0.0,92,0.00,,,-99.99,HOBO +U30 +Weather +,2013-02-04 02:00:00,
2013-02-03 21:30:00,21.9,20.1,-100.00,ENE,62,0.0,0.0,92,0.00,,,-99.99,HOBO +U30 +Weather +,2013-02-04 02:30:00,
2013-02-03 21:45:00,21.5,19.8,-100.00,ENE,62,0.0,0.0,93,0.00,,,-99.99,HOBO +U30 +Weather +,2013-02-04 02:45:00,
2013-02-03 22:00:00,21.7,20.0,-100.00,NE,46,0.0,0.0,93,0.00,,,-99.99,HOBO +U30 +Weather +,2013-02-04 03:00:00,
2013-02-03 22:15:00,21.5,19.8,-100.00,NW,321,0.0,0.0,93,0.00,,,-99.99,HOBO +U30 +Weather +,2013-02-04 03:15:00,
2013-02-03 22:30:00,20.7,19.1,-100.00,NW,320,0.0,0.0,93,0.00,,,-99.99,HOBO +U30 +Weather +,2013-02-04 03:30:00,
2013-02-03 22:45:00,20.6,19.0,-100.00,NW,324,0.0,0.0,93,0.00,,,-99.99,HOBO +U30 +Weather +,2013-02-04 03:45:00,
2013-02-03 23:00:00,20.2,18.7,-100.00,NW,326,0.0,0.0,93,0.00,,,-99.99,HOBO +U30 +Weather +,2013-02-04 04:00:00,
2013-02-03 23:15:00,19.8,18.4,-100.00,NW,326,0.0,0.0,94,0.00,,,-99.99,HOBO +U30 +Weather +,2013-02-04 04:15:00,
2013-02-03 23:30:00,19.7,18.3,-100.00,NW,326,0.0,0.0,94,0.00,,,-99.99,HOBO +U30 +Weather +,2013-02-04 04:30:00,
2013-02-03 23:45:00,19.2,17.8,-100.00,NW,326,0.0,0.0,94,0.00,,,-99.99,HOBO +U30 +Weather +,2013-02-04 04:45:00,